Weather in Ziadin

Uzbekistan     40°01′48″N   65°39′34″E
temp.,
°C
wind,
m/s
gust,
m/s
humid.,
%
clouds,
%
prec.,
mm/h
press.,
hPa
HPBL,
m
27 july, tue
tue2723:00+32nne916220 0.0 1004746
02:00+28nne25260 0.0 1003121
05:00+26e36240 0.0 1003170
08:00+30ne712200 0.0 1003725
11:00+35ne99170 0.0 10021381
14:00+38nne1110140 0.0 10001956
17:00+38nne1211120 0.0 9992135
20:00+33nne713130 0.0 1001386
28 july, wed
wed2823:00+30nne816130 0.0 1001569
02:00+28ne815160 0.0 1001438
05:00+27ne1017180 0.0 1001576
08:00+29ne913170 0.0 1002958
11:00+34ne1212100 0.0 10011545
14:00+37nne121180 0.0 10002013
17:00+37nne111160 0.0 9992046
20:00+31nne814110 0.0 1001468
29 july, thu
thu2923:00+28nne713130 0.0 1002377
02:00+23nne22180 0.0 100237
05:00+22e33190 0.0 100328
08:00+27ene46150 0.0 1004366
11:00+34nne68150 0.0 10041985
14:00+35n99130 0.0 10042192
17:00+34n1010125 0.0 10042264
20:00+29n7121520 0.0 1006338
30 july, fri
fri3023:00+27nne713165 0.0 1006443
02:00+26nne6131896 0.0 1006384
05:00+24nne5102042 0.0 1007207
08:00+28nne811170 0.0 10071226
11:00+32nne99140 0.0 10072253
14:00+35n98100 0.0 10053022
17:00+35n98100 0.0 10043313
20:00+29nne44150 0.0 100531
31 july, sat
sat3123:00+29ne714160 0.0 1006421
02:00+28ne715150 0.0 1005352
05:00+24ene34200 0.0 100658
08:00+30ne1012130 0.0 10061224
11:00+34nne119100 0.0 10051883
14:00+37nne7680 0.0 10032526
17:00+37nne8770 0.0 10022723
20:00+30nne33120 0.0 100219